owner,sensor,date,latitude,longitude,vertical_datum,direction_of_sea_water_velocity,sea_water_speed,upward_sea_water_velocity,qcFlag 
WAVCIS,ioos:station:WAVCIS:CSI16:1,2010-12-01T00:00:00Z,29.4012,-89.0355,10.36,159.0,0.366,-99999.0,'11133222,11111222,99999999' 
WAVCIS,ioos:station:WAVCIS:CSI16:1,2010-12-01T01:00:00Z,29.4012,-89.0355,10.36,184.0,0.161,-99999.0,'11133222,11111222,99999999' 
WAVCIS,ioos:station:WAVCIS:CSI16:1,2010-12-01T02:00:00Z,29.4012,-89.0355,10.36,158.0,0.213,-99999.0,'11133222,11111222,99999999' 
WAVCIS,ioos:station:WAVCIS:CSI16:1,2010-12-01T03:00:00Z,29.4012,-89.0355,10.36,153.0,0.277,-99999.0,'11133222,11111222,99999999' 
WAVCIS,ioos:station:WAVCIS:CSI16:1,2010-12-01T04:00:00Z,29.4012,-89.0355,10.36,148.0,0.282,-99999.0,'11133222,11111222,99999999' 
WAVCIS,ioos:station:WAVCIS:CSI16:1,2010-12-01T05:00:00Z,29.4012,-89.0355,10.36,153.0,0.247,-99999.0,'11133222,11111222,99999999' 
WAVCIS,ioos:station:WAVCIS:CSI16:1,2010-12-01T06:00:00Z,29.4012,-89.0355,9.86,156.0,0.225,-99999.0,'11133222,11111222,99999999' 
WAVCIS,ioos:station:WAVCIS:CSI16:1,2010-12-01T07:00:00Z,29.4012,-89.0355,9.86,146.0,0.393,-99999.0,'11133222,11111222,99999999' 
WAVCIS,ioos:station:WAVCIS:CSI16:1,2010-12-01T08:00:00Z,29.4012,-89.0355,9.86,151.0,0.339,-99999.0,'11133222,11111222,99999999' 
WAVCIS,ioos:station:WAVCIS:CSI16:1,2010-12-01T09:00:00Z,29.4012,-89.0355,9.86,155.0,0.272,-99999.0,'11133222,11111222,99999999' 
WAVCIS,ioos:station:WAVCIS:CSI16:1,2010-12-01T10:00:00Z,29.4012,-89.0355,9.86,160.0,0.214,-99999.0,'11133222,11111222,99999999' 
WAVCIS,ioos:station:WAVCIS:CSI16:1,2010-12-01T11:00:00Z,29.4012,-89.0355,9.86,156.0,0.223,-99999.0,'11133222,11111222,99999999' 
WAVCIS,ioos:station:WAVCIS:CSI16:1,2010-12-01T12:00:00Z,29.4012,-89.0355,10.36,154.0,0.198,-99999.0,'11133222,11111222,99999999' 
WAVCIS,ioos:station:WAVCIS:CSI16:1,2010-12-01T13:00:00Z,29.4012,-89.0355,10.36,183.0,0.15,-99999.0,'11133222,11111222,99999999' 
WAVCIS,ioos:station:WAVCIS:CSI16:1,2010-12-01T14:00:00Z,29.4012,-89.0355,10.36,178.0,0.166,-99999.0,'11133222,11111222,99999999' 
WAVCIS,ioos:station:WAVCIS:CSI16:1,2010-12-01T15:00:00Z,29.4012,-89.0355,10.36,182.0,0.134,-99999.0,'11133222,11111222,99999999' 
WAVCIS,ioos:station:WAVCIS:CSI16:1,2010-12-01T16:00:00Z,29.4012,-89.0355,10.36,232.0,0.195,-99999.0,'11133222,11111222,99999999' 
WAVCIS,ioos:station:WAVCIS:CSI16:1,2010-12-01T17:00:00Z,29.4012,-89.0355,10.36,244.0,0.199,-99999.0,'11133222,11111222,99999999' 
WAVCIS,ioos:station:WAVCIS:CSI16:1,2010-12-01T18:00:00Z,29.4012,-89.0355,10.36,244.0,0.127,-99999.0,'11133222,11111222,99999999' 
WAVCIS,ioos:station:WAVCIS:CSI16:1,2010-12-01T19:00:00Z,29.4012,-89.0355,10.36,317.0,0.037,-99999.0,'11133222,11111222,99999999' 
WAVCIS,ioos:station:WAVCIS:CSI16:1,2010-12-01T20:00:00Z,29.4012,-89.0355,10.86,274.0,0.062,-99999.0,'11133222,11111222,99999999' 
WAVCIS,ioos:station:WAVCIS:CSI16:1,2010-12-01T21:00:00Z,29.4012,-89.0355,10.86,359.0,0.068,-99999.0,'11133222,11111222,99999999' 
WAVCIS,ioos:station:WAVCIS:CSI16:1,2010-12-01T22:00:00Z,29.4012,-89.0355,10.86,36.0,0.077,-99999.0,'11133222,11111222,99999999' 
WAVCIS,ioos:station:WAVCIS:CSI16:1,2010-12-01T23:00:00Z,29.4012,-89.0355,10.36,10.0,0.225,-99999.0,'11133222,11111222,99999999' 
WAVCIS,ioos:station:WAVCIS:CSI16:1,2010-12-02T00:00:00Z,29.4012,-89.0355,10.86,64.0,0.154,-99999.0,'11133222,11111222,99999999' 
WAVCIS,ioos:station:WAVCIS:CSI16:1,2010-12-02T01:00:00Z,29.4012,-89.0355,10.86,88.0,0.19,-99999.0,'11133222,11111222,99999999' 
WAVCIS,ioos:station:WAVCIS:CSI16:1,2010-12-02T02:00:00Z,29.4012,-89.0355,10.86,104.0,0.219,-99999.0,'11133222,11111222,99999999' 
WAVCIS,ioos:station:WAVCIS:CSI16:1,2010-12-02T03:00:00Z,29.4012,-89.0355,10.86,111.0,0.298,-99999.0,'11133222,11111222,99999999' 
WAVCIS,ioos:station:WAVCIS:CSI16:1,2010-12-02T04:00:00Z,29.4012,-89.0355,10.36,108.0,0.419,-99999.0,'11133222,11111222,99999999' 
WAVCIS,ioos:station:WAVCIS:CSI16:1,2010-12-02T05:00:00Z,29.4012,-89.0355,10.36,111.0,0.514,-99999.0,'11133222,11111222,99999999' 
WAVCIS,ioos:station:WAVCIS:CSI16:1,2010-12-02T06:00:00Z,29.4012,-89.0355,10.36,109.0,0.596,-99999.0,'11133222,11111222,99999999' 
WAVCIS,ioos:station:WAVCIS:CSI16:1,2010-12-02T07:00:00Z,29.4012,-89.0355,10.36,105.0,0.587,-99999.0,'11133222,11111222,99999999' 
WAVCIS,ioos:station:WAVCIS:CSI16:1,2010-12-02T08:00:00Z,29.4012,-89.0355,10.36,95.0,0.555,-99999.0,'11133222,11111222,99999999' 
WAVCIS,ioos:station:WAVCIS:CSI16:1,2010-12-02T09:00:00Z,29.4012,-89.0355,10.36,97.0,0.477,-99999.0,'11133222,11111222,99999999' 
WAVCIS,ioos:station:WAVCIS:CSI16:1,2010-12-02T10:00:00Z,29.4012,-89.0355,10.36,94.0,0.357,-99999.0,'11133222,11111222,99999999' 
WAVCIS,ioos:station:WAVCIS:CSI16:1,2010-12-02T11:00:00Z,29.4012,-89.0355,10.36,100.0,0.194,-99999.0,'11133222,11111222,99999999' 
WAVCIS,ioos:station:WAVCIS:CSI16:1,2010-12-02T12:00:00Z,29.4012,-89.0355,10.36,92.0,0.126,-99999.0,'11133222,11111222,99999999' 
WAVCIS,ioos:station:WAVCIS:CSI16:1,2010-12-02T13:00:00Z,29.4012,-89.0355,10.36,16.0,0.1,-99999.0,'11133222,11111222,99999999' 
WAVCIS,ioos:station:WAVCIS:CSI16:1,2010-12-02T14:00:00Z,29.4012,-89.0355,10.36,335.0,0.131,-99999.0,'11133222,11111222,99999999' 
WAVCIS,ioos:station:WAVCIS:CSI16:1,2010-12-02T15:00:00Z,29.4012,-89.0355,10.36,341.0,0.276,-99999.0,'11133222,11111222,99999999' 
WAVCIS,ioos:station:WAVCIS:CSI16:1,2010-12-02T16:00:00Z,29.4012,-89.0355,10.36,329.0,0.199,-99999.0,'11133222,11111222,99999999' 
WAVCIS,ioos:station:WAVCIS:CSI16:1,2010-12-02T17:00:00Z,29.4012,-89.0355,10.36,312.0,0.211,-99999.0,'11133222,11111222,99999999' 
WAVCIS,ioos:station:WAVCIS:CSI16:1,2010-12-02T18:00:00Z,29.4012,-89.0355,10.36,336.0,0.308,-99999.0,'11133222,11111222,99999999' 
WAVCIS,ioos:station:WAVCIS:CSI16:1,2010-12-02T19:00:00Z,29.4012,-89.0355,10.36,332.0,0.327,-99999.0,'11133222,11111222,99999999' 
WAVCIS,ioos:station:WAVCIS:CSI16:1,2010-12-02T20:00:00Z,29.4012,-89.0355,10.86,326.0,0.247,-99999.0,'11133222,11111222,99999999' 
WAVCIS,ioos:station:WAVCIS:CSI16:1,2010-12-02T21:00:00Z,29.4012,-89.0355,10.86,326.0,0.225,-99999.0,'11133222,11111222,99999999' 
WAVCIS,ioos:station:WAVCIS:CSI16:1,2010-12-02T22:00:00Z,29.4012,-89.0355,10.86,323.0,0.235,-99999.0,'11133222,11111222,99999999' 
WAVCIS,ioos:station:WAVCIS:CSI16:1,2010-12-02T23:00:00Z,29.4012,-89.0355,10.86,324.0,0.231,-99999.0,'11133222,11111222,99999999' 
WAVCIS,ioos:station:WAVCIS:CSI16:1,2010-12-03T00:00:00Z,29.4012,-89.0355,10.86,333.0,0.212,-99999.0,'11133222,11111222,99999999' 
WAVCIS,ioos:station:WAVCIS:CSI16:1,2010-12-03T01:00:00Z,29.4012,-89.0355,10.86,330.0,0.16,-99999.0,'11133222,11111222,99999999' 
WAVCIS,ioos:station:WAVCIS:CSI16:1,2010-12-03T02:00:00Z,29.4012,-89.0355,10.86,344.0,0.189,-99999.0,'11133222,11111222,99999999' 
WAVCIS,ioos:station:WAVCIS:CSI16:1,2010-12-03T03:00:00Z,29.4012,-89.0355,10.86,5.0,0.145,-99999.0,'11133222,11111222,99999999' 
WAVCIS,ioos:station:WAVCIS:CSI16:1,2010-12-03T04:00:00Z,29.4012,-89.0355,10.86,20.0,0.181,-99999.0,'11133222,11111222,99999999' 
WAVCIS,ioos:station:WAVCIS:CSI16:1,2010-12-03T05:00:00Z,29.4012,-89.0355,10.36,47.0,0.262,-99999.0,'11133222,11111222,99999999' 
WAVCIS,ioos:station:WAVCIS:CSI16:1,2010-12-03T06:00:00Z,29.4012,-89.0355,10.36,80.0,0.385,-99999.0,'11133222,11111222,99999999' 
WAVCIS,ioos:station:WAVCIS:CSI16:1,2010-12-03T07:00:00Z,29.4012,-89.0355,10.36,86.0,0.405,-99999.0,'11133222,11111222,99999999' 
WAVCIS,ioos:station:WAVCIS:CSI16:1,2010-12-03T08:00:00Z,29.4012,-89.0355,10.36,92.0,0.414,-99999.0,'11133222,11111222,99999999' 
WAVCIS,ioos:station:WAVCIS:CSI16:1,2010-12-03T09:00:00Z,29.4012,-89.0355,10.36,85.0,0.365,-99999.0,'11133222,11111222,99999999' 
WAVCIS,ioos:station:WAVCIS:CSI16:1,2010-12-03T10:00:00Z,29.4012,-89.0355,10.36,108.0,0.418,-99999.0,'11133222,11111222,99999999' 
WAVCIS,ioos:station:WAVCIS:CSI16:1,2010-12-03T11:00:00Z,29.4012,-89.0355,10.36,119.0,0.347,-99999.0,'11133222,11111222,99999999' 
WAVCIS,ioos:station:WAVCIS:CSI16:1,2010-12-03T12:00:00Z,29.4012,-89.0355,10.36,173.0,0.145,-99999.0,'11133222,11111222,99999999' 
WAVCIS,ioos:station:WAVCIS:CSI16:1,2010-12-03T13:00:00Z,29.4012,-89.0355,10.36,202.0,0.183,-99999.0,'11133222,11111222,99999999' 
WAVCIS,ioos:station:WAVCIS:CSI16:1,2010-12-03T14:00:00Z,29.4012,-89.0355,10.36,219.0,0.203,-99999.0,'11133222,11111222,99999999' 
WAVCIS,ioos:station:WAVCIS:CSI16:1,2010-12-03T15:00:00Z,29.4012,-89.0355,10.36,230.0,0.321,-99999.0,'11133222,11111222,99999999' 
WAVCIS,ioos:station:WAVCIS:CSI16:1,2010-12-03T16:00:00Z,29.4012,-89.0355,10.36,261.0,0.188,-99999.0,'11133222,11111222,99999999' 
WAVCIS,ioos:station:WAVCIS:CSI16:1,2010-12-03T17:00:00Z,29.4012,-89.0355,10.36,285.0,0.335,-99999.0,'11133222,11111222,99999999' 
WAVCIS,ioos:station:WAVCIS:CSI16:1,2010-12-03T18:00:00Z,29.4012,-89.0355,10.36,297.0,0.406,-99999.0,'11133222,11111222,99999999' 
WAVCIS,ioos:station:WAVCIS:CSI16:1,2010-12-03T19:00:00Z,29.4012,-89.0355,10.36,297.0,0.392,-99999.0,'11133222,11111222,99999999' 
WAVCIS,ioos:station:WAVCIS:CSI16:1,2010-12-03T20:00:00Z,29.4012,-89.0355,10.86,299.0,0.248,-99999.0,'11133222,11111222,99999999' 
WAVCIS,ioos:station:WAVCIS:CSI16:1,2010-12-03T21:00:00Z,29.4012,-89.0355,10.86,292.0,0.231,-99999.0,'11133222,11111222,99999999' 
WAVCIS,ioos:station:WAVCIS:CSI16:1,2010-12-03T22:00:00Z,29.4012,-89.0355,10.86,289.0,0.282,-99999.0,'11133222,11111222,99999999' 
WAVCIS,ioos:station:WAVCIS:CSI16:1,2010-12-03T23:00:00Z,29.4012,-89.0355,10.86,290.0,0.307,-99999.0,'11133222,11111222,99999999' 
WAVCIS,ioos:station:WAVCIS:CSI16:1,2010-12-04T00:00:00Z,29.4012,-89.0355,10.86,301.0,0.341,-99999.0,'11133222,11111222,99999999' 
WAVCIS,ioos:station:WAVCIS:CSI16:1,2010-12-04T01:00:00Z,29.4012,-89.0355,10.86,318.0,0.382,-99999.0,'11133222,11111222,99999999' 
WAVCIS,ioos:station:WAVCIS:CSI16:1,2010-12-04T02:00:00Z,29.4012,-89.0355,10.86,328.0,0.335,-99999.0,'11133222,11111222,99999999' 
WAVCIS,ioos:station:WAVCIS:CSI16:1,2010-12-04T03:00:00Z,29.4012,-89.0355,10.86,330.0,0.213,-99999.0,'11133222,11111222,99999999' 
WAVCIS,ioos:station:WAVCIS:CSI16:1,2010-12-04T04:00:00Z,29.4012,-89.0355,10.86,358.0,0.15,-99999.0,'11133222,11111222,99999999' 
WAVCIS,ioos:station:WAVCIS:CSI16:1,2010-12-04T05:00:00Z,29.4012,-89.0355,10.86,14.0,0.159,-99999.0,'11133222,11111222,99999999' 
WAVCIS,ioos:station:WAVCIS:CSI16:1,2010-12-04T06:00:00Z,29.4012,-89.0355,10.36,63.0,0.305,-99999.0,'11133222,11111222,99999999' 
WAVCIS,ioos:station:WAVCIS:CSI16:1,2010-12-04T07:00:00Z,29.4012,-89.0355,10.36,76.0,0.385,-99999.0,'11133222,11111222,99999999' 
WAVCIS,ioos:station:WAVCIS:CSI16:1,2010-12-04T08:00:00Z,29.4012,-89.0355,10.36,76.0,0.411,-99999.0,'11133222,11111222,99999999' 
WAVCIS,ioos:station:WAVCIS:CSI16:1,2010-12-04T09:00:00Z,29.4012,-89.0355,10.36,81.0,0.359,-99999.0,'11133222,11111222,99999999' 
WAVCIS,ioos:station:WAVCIS:CSI16:1,2010-12-04T10:00:00Z,29.4012,-89.0355,10.36,87.0,0.217,-99999.0,'11133222,11111222,99999999' 
WAVCIS,ioos:station:WAVCIS:CSI16:1,2010-12-04T11:00:00Z,29.4012,-89.0355,10.36,123.0,0.404,-99999.0,'11133222,11111222,99999999' 
WAVCIS,ioos:station:WAVCIS:CSI16:1,2010-12-04T12:00:00Z,29.4012,-89.0355,10.36,148.0,0.318,-99999.0,'11133222,11111222,99999999' 
WAVCIS,ioos:station:WAVCIS:CSI16:1,2010-12-04T13:00:00Z,29.4012,-89.0355,10.36,181.0,0.214,-99999.0,'11133222,11111222,99999999' 
WAVCIS,ioos:station:WAVCIS:CSI16:1,2010-12-04T14:00:00Z,29.4012,-89.0355,10.36,213.0,0.229,-99999.0,'11133222,11111222,99999999' 
WAVCIS,ioos:station:WAVCIS:CSI16:1,2010-12-04T15:00:00Z,29.4012,-89.0355,10.36,231.0,0.238,-99999.0,'11133222,11111222,99999999' 
WAVCIS,ioos:station:WAVCIS:CSI16:1,2010-12-04T16:00:00Z,29.4012,-89.0355,10.36,257.0,0.158,-99999.0,'11133222,11111222,99999999' 
WAVCIS,ioos:station:WAVCIS:CSI16:1,2010-12-04T17:00:00Z,29.4012,-89.0355,10.36,288.0,0.414,-99999.0,'11133222,11111222,99999999' 
WAVCIS,ioos:station:WAVCIS:CSI16:1,2010-12-04T18:00:00Z,29.4012,-89.0355,10.36,293.0,0.455,-99999.0,'11133222,11111222,99999999' 
WAVCIS,ioos:station:WAVCIS:CSI16:1,2010-12-04T19:00:00Z,29.4012,-89.0355,10.36,297.0,0.447,-99999.0,'11133222,11111222,99999999' 
WAVCIS,ioos:station:WAVCIS:CSI16:1,2010-12-04T20:00:00Z,29.4012,-89.0355,10.36,298.0,0.444,-99999.0,'11133222,11111222,99999999' 
WAVCIS,ioos:station:WAVCIS:CSI16:1,2010-12-04T21:00:00Z,29.4012,-89.0355,10.86,304.0,0.316,-99999.0,'11133222,11111222,99999999' 
WAVCIS,ioos:station:WAVCIS:CSI16:1,2010-12-04T22:00:00Z,29.4012,-89.0355,10.86,306.0,0.223,-99999.0,'11133222,11111222,99999999' 
WAVCIS,ioos:station:WAVCIS:CSI16:1,2010-12-04T23:00:00Z,29.4012,-89.0355,11.36,321.0,0.266,-99999.0,'11133222,11111222,99999999' 
WAVCIS,ioos:station:WAVCIS:CSI16:1,2010-12-05T00:00:00Z,29.4012,-89.0355,10.86,304.0,0.188,-99999.0,'11133222,11111222,99999999' 
WAVCIS,ioos:station:WAVCIS:CSI16:1,2010-12-05T01:00:00Z,29.4012,-89.0355,10.86,324.0,0.241,-99999.0,'11133222,11111222,99999999' 
WAVCIS,ioos:station:WAVCIS:CSI16:1,2010-12-05T02:00:00Z,29.4012,-89.0355,10.86,333.0,0.288,-99999.0,'11133222,11111222,99999999' 
WAVCIS,ioos:station:WAVCIS:CSI16:1,2010-12-05T03:00:00Z,29.4012,-89.0355,10.86,343.0,0.314,-99999.0,'11133222,11111222,99999999' 
WAVCIS,ioos:station:WAVCIS:CSI16:1,2010-12-05T04:00:00Z,29.4012,-89.0355,10.86,354.0,0.298,-99999.0,'11133222,11111222,99999999' 
WAVCIS,ioos:station:WAVCIS:CSI16:1,2010-12-05T05:00:00Z,29.4012,-89.0355,10.86,11.0,0.322,-99999.0,'11133222,11111222,99999999' 
WAVCIS,ioos:station:WAVCIS:CSI16:1,2010-12-05T06:00:00Z,29.4012,-89.0355,10.36,8.0,0.339,-99999.0,'11133222,11111222,99999999' 
WAVCIS,ioos:station:WAVCIS:CSI16:1,2010-12-05T07:00:00Z,29.4012,-89.0355,10.36,51.0,0.535,-99999.0,'11133222,11111222,99999999' 
WAVCIS,ioos:station:WAVCIS:CSI16:1,2010-12-05T08:00:00Z,29.4012,-89.0355,10.36,81.0,0.679,-99999.0,'11133222,11111222,99999999' 
WAVCIS,ioos:station:WAVCIS:CSI16:1,2010-12-05T09:00:00Z,29.4012,-89.0355,10.36,96.0,0.587,-99999.0,'11133222,11111222,99999999' 
WAVCIS,ioos:station:WAVCIS:CSI16:1,2010-12-05T10:00:00Z,29.4012,-89.0355,9.86,116.0,0.448,-99999.0,'11133222,11111222,99999999' 
WAVCIS,ioos:station:WAVCIS:CSI16:1,2010-12-05T11:00:00Z,29.4012,-89.0355,9.86,156.0,0.352,-99999.0,'11133222,11111222,99999999' 
WAVCIS,ioos:station:WAVCIS:CSI16:1,2010-12-05T12:00:00Z,29.4012,-89.0355,9.86,163.0,0.287,-99999.0,'11133222,11111222,99999999' 
WAVCIS,ioos:station:WAVCIS:CSI16:1,2010-12-05T13:00:00Z,29.4012,-89.0355,9.86,152.0,0.475,-99999.0,'11133222,11111222,99999999' 
WAVCIS,ioos:station:WAVCIS:CSI16:1,2010-12-05T14:00:00Z,29.4012,-89.0355,9.86,172.0,0.34,-99999.0,'11133222,11111222,99999999' 
WAVCIS,ioos:station:WAVCIS:CSI16:1,2010-12-05T15:00:00Z,29.4012,-89.0355,9.86,176.0,0.38,-99999.0,'11133222,11111222,99999999' 
WAVCIS,ioos:station:WAVCIS:CSI16:1,2010-12-05T16:00:00Z,29.4012,-89.0355,9.86,174.0,0.369,-99999.0,'11133222,11111222,99999999' 
WAVCIS,ioos:station:WAVCIS:CSI16:1,2010-12-05T17:00:00Z,29.4012,-89.0355,9.86,177.0,0.346,-99999.0,'11133222,11111222,99999999' 
WAVCIS,ioos:station:WAVCIS:CSI16:1,2010-12-05T18:00:00Z,29.4012,-89.0355,9.86,189.0,0.281,-99999.0,'11133222,11111222,99999999' 
WAVCIS,ioos:station:WAVCIS:CSI16:1,2010-12-05T19:00:00Z,29.4012,-89.0355,10.36,181.0,0.257,-99999.0,'11133222,11111222,99999999' 
WAVCIS,ioos:station:WAVCIS:CSI16:1,2010-12-05T20:00:00Z,29.4012,-89.0355,10.36,198.0,0.274,-99999.0,'11133222,11111222,99999999' 
WAVCIS,ioos:station:WAVCIS:CSI16:1,2010-12-05T21:00:00Z,29.4012,-89.0355,10.36,198.0,0.241,-99999.0,'11133222,11111222,99999999' 
WAVCIS,ioos:station:WAVCIS:CSI16:1,2010-12-05T22:00:00Z,29.4012,-89.0355,10.36,199.0,0.28,-99999.0,'11133222,11111222,99999999' 
WAVCIS,ioos:station:WAVCIS:CSI16:1,2010-12-05T23:00:00Z,29.4012,-89.0355,10.36,199.0,0.191,-99999.0,'11133222,11111222,99999999' 
WAVCIS,ioos:station:WAVCIS:CSI16:1,2010-12-06T00:00:00Z,29.4012,-89.0355,10.36,209.0,0.213,-99999.0,'11133222,11111222,99999999' 
WAVCIS,ioos:station:WAVCIS:CSI16:1,2010-12-06T01:00:00Z,29.4012,-89.0355,10.86,190.0,0.177,-99999.0,'11133222,11111222,99999999' 
WAVCIS,ioos:station:WAVCIS:CSI16:1,2010-12-06T02:00:00Z,29.4012,-89.0355,10.36,175.0,0.122,-99999.0,'11133222,11111222,99999999' 
WAVCIS,ioos:station:WAVCIS:CSI16:1,2010-12-06T03:00:00Z,29.4012,-89.0355,10.36,180.0,0.148,-99999.0,'11133222,11111222,99999999' 
WAVCIS,ioos:station:WAVCIS:CSI16:1,2010-12-06T04:00:00Z,29.4012,-89.0355,10.36,171.0,0.181,-99999.0,'11133222,11111222,99999999' 
WAVCIS,ioos:station:WAVCIS:CSI16:1,2010-12-06T05:00:00Z,29.4012,-89.0355,10.36,165.0,0.184,-99999.0,'11133222,11111222,99999999' 
WAVCIS,ioos:station:WAVCIS:CSI16:1,2010-12-06T06:00:00Z,29.4012,-89.0355,10.36,150.0,0.201,-99999.0,'11133222,11111222,99999999' 
WAVCIS,ioos:station:WAVCIS:CSI16:1,2010-12-06T07:00:00Z,29.4012,-89.0355,9.86,161.0,0.232,-99999.0,'11133222,11111222,99999999' 
WAVCIS,ioos:station:WAVCIS:CSI16:1,2010-12-06T08:00:00Z,29.4012,-89.0355,9.86,156.0,0.331,-99999.0,'11133222,11111222,99999999' 
WAVCIS,ioos:station:WAVCIS:CSI16:1,2010-12-06T09:00:00Z,29.4012,-89.0355,9.86,157.0,0.346,-99999.0,'11133222,11111222,99999999' 
WAVCIS,ioos:station:WAVCIS:CSI16:1,2010-12-06T10:00:00Z,29.4012,-89.0355,9.86,156.0,0.526,-99999.0,'11133222,11111222,99999999' 
WAVCIS,ioos:station:WAVCIS:CSI16:1,2010-12-06T11:00:00Z,29.4012,-89.0355,9.86,157.0,0.456,-99999.0,'11133222,11111222,99999999' 
WAVCIS,ioos:station:WAVCIS:CSI16:1,2010-12-06T12:00:00Z,29.4012,-89.0355,9.86,154.0,0.39,-99999.0,'11133222,11111222,99999999' 
WAVCIS,ioos:station:WAVCIS:CSI16:1,2010-12-06T13:00:00Z,29.4012,-89.0355,9.86,157.0,0.318,-99999.0,'11133222,11111222,99999999' 
WAVCIS,ioos:station:WAVCIS:CSI16:1,2010-12-06T14:00:00Z,29.4012,-89.0355,9.86,155.0,0.36,-99999.0,'11133222,11111222,99999999' 
WAVCIS,ioos:station:WAVCIS:CSI16:1,2010-12-06T15:00:00Z,29.4012,-89.0355,9.86,152.0,0.292,-99999.0,'11133222,11111222,99999999' 
WAVCIS,ioos:station:WAVCIS:CSI16:1,2010-12-06T16:00:00Z,29.4012,-89.0355,9.86,158.0,0.273,-99999.0,'11133222,11111222,99999999' 
WAVCIS,ioos:station:WAVCIS:CSI16:1,2010-12-06T17:00:00Z,29.4012,-89.0355,9.86,184.0,0.361,-99999.0,'11133222,11111222,99999999' 
WAVCIS,ioos:station:WAVCIS:CSI16:1,2010-12-06T18:00:00Z,29.4012,-89.0355,9.86,192.0,0.19,-99999.0,'11133222,11111222,99999999' 
WAVCIS,ioos:station:WAVCIS:CSI16:1,2010-12-06T19:00:00Z,29.4012,-89.0355,10.36,198.0,0.143,-99999.0,'11133222,11111222,99999999' 
WAVCIS,ioos:station:WAVCIS:CSI16:1,2010-12-06T20:00:00Z,29.4012,-89.0355,10.36,220.0,0.177,-99999.0,'11133222,11111222,99999999' 
WAVCIS,ioos:station:WAVCIS:CSI16:1,2010-12-06T21:00:00Z,29.4012,-89.0355,10.36,240.0,0.147,-99999.0,'11133222,11111222,99999999' 
WAVCIS,ioos:station:WAVCIS:CSI16:1,2010-12-06T22:00:00Z,29.4012,-89.0355,10.36,232.0,0.137,-99999.0,'11133222,11111222,99999999' 
WAVCIS,ioos:station:WAVCIS:CSI16:1,2010-12-06T23:00:00Z,29.4012,-89.0355,10.36,234.0,0.122,-99999.0,'11133222,11111222,99999999' 
WAVCIS,ioos:station:WAVCIS:CSI16:1,2010-12-07T00:00:00Z,29.4012,-89.0355,10.36,233.0,0.116,-99999.0,'11133222,11111222,99999999' 
WAVCIS,ioos:station:WAVCIS:CSI16:1,2010-12-07T01:00:00Z,29.4012,-89.0355,10.86,240.0,0.06,-99999.0,'11133222,11111222,99999999' 
WAVCIS,ioos:station:WAVCIS:CSI16:1,2010-12-07T02:00:00Z,29.4012,-89.0355,10.36,292.0,0.058,-99999.0,'11133222,11111222,99999999' 
WAVCIS,ioos:station:WAVCIS:CSI16:1,2010-12-07T03:00:00Z,29.4012,-89.0355,10.36,302.0,0.038,-99999.0,'11133222,11111222,99999999' 
WAVCIS,ioos:station:WAVCIS:CSI16:1,2010-12-07T04:00:00Z,29.4012,-89.0355,10.36,0.0,0.017,-99999.0,'11133222,11111222,99999999' 
WAVCIS,ioos:station:WAVCIS:CSI16:1,2010-12-07T05:00:00Z,29.4012,-89.0355,10.36,78.0,0.03,-99999.0,'11133222,11111222,99999999' 
WAVCIS,ioos:station:WAVCIS:CSI16:1,2010-12-07T06:00:00Z,29.4012,-89.0355,10.36,87.0,0.119,-99999.0,'11133222,11111222,99999999' 
WAVCIS,ioos:station:WAVCIS:CSI16:1,2010-12-07T07:00:00Z,29.4012,-89.0355,10.36,98.0,0.186,-99999.0,'11133222,11111222,99999999' 
WAVCIS,ioos:station:WAVCIS:CSI16:1,2010-12-07T08:00:00Z,29.4012,-89.0355,10.36,115.0,0.277,-99999.0,'11133222,11111222,99999999' 
WAVCIS,ioos:station:WAVCIS:CSI16:1,2010-12-07T09:00:00Z,29.4012,-89.0355,10.36,130.0,0.235,-99999.0,'11133222,11111222,99999999' 
WAVCIS,ioos:station:WAVCIS:CSI16:1,2010-12-07T10:00:00Z,29.4012,-89.0355,9.86,157.0,0.264,-99999.0,'11133222,11111222,99999999' 
WAVCIS,ioos:station:WAVCIS:CSI16:1,2010-12-07T11:00:00Z,29.4012,-89.0355,9.86,153.0,0.297,-99999.0,'11133222,11111222,99999999' 
WAVCIS,ioos:station:WAVCIS:CSI16:1,2010-12-07T12:00:00Z,29.4012,-89.0355,9.86,152.0,0.282,-99999.0,'11133222,11111222,99999999' 
WAVCIS,ioos:station:WAVCIS:CSI16:1,2010-12-07T13:00:00Z,29.4012,-89.0355,9.86,151.0,0.423,-99999.0,'11133222,11111222,99999999' 
WAVCIS,ioos:station:WAVCIS:CSI16:1,2010-12-07T14:00:00Z,29.4012,-89.0355,9.86,149.0,0.406,-99999.0,'11133222,11111222,99999999' 
WAVCIS,ioos:station:WAVCIS:CSI16:1,2010-12-07T15:00:00Z,29.4012,-89.0355,9.86,150.0,0.348,-99999.0,'11133222,11111222,99999999' 
WAVCIS,ioos:station:WAVCIS:CSI16:1,2010-12-07T16:00:00Z,29.4012,-89.0355,9.86,159.0,0.202,-99999.0,'11133222,11111222,99999999' 
WAVCIS,ioos:station:WAVCIS:CSI16:1,2010-12-07T17:00:00Z,29.4012,-89.0355,10.36,166.0,0.229,-99999.0,'11133222,11111222,99999999' 
WAVCIS,ioos:station:WAVCIS:CSI16:1,2010-12-07T18:00:00Z,29.4012,-89.0355,10.36,161.0,0.22,-99999.0,'11133222,11111222,99999999' 
WAVCIS,ioos:station:WAVCIS:CSI16:1,2010-12-07T19:00:00Z,29.4012,-89.0355,10.36,158.0,0.226,-99999.0,'11133222,11111222,99999999' 
WAVCIS,ioos:station:WAVCIS:CSI16:1,2010-12-07T20:00:00Z,29.4012,-89.0355,10.36,33.0,0.092,-99999.0,'11133222,11111222,99999999' 
WAVCIS,ioos:station:WAVCIS:CSI16:1,2010-12-07T21:00:00Z,29.4012,-89.0355,10.36,250.0,0.171,-99999.0,'11133222,11111222,99999999' 
WAVCIS,ioos:station:WAVCIS:CSI16:1,2010-12-07T22:00:00Z,29.4012,-89.0355,10.36,261.0,0.057,-99999.0,'11133222,11111222,99999999' 
WAVCIS,ioos:station:WAVCIS:CSI16:1,2010-12-07T23:00:00Z,29.4012,-89.0355,10.36,243.0,0.127,-99999.0,'11133222,11111222,99999999' 
WAVCIS,ioos:station:WAVCIS:CSI16:1,2010-12-08T00:00:00Z,29.4012,-89.0355,10.86,229.0,0.121,-99999.0,'11133222,11111222,99999999' 
WAVCIS,ioos:station:WAVCIS:CSI16:1,2010-12-08T01:00:00Z,29.4012,-89.0355,10.86,294.0,0.25,-99999.0,'11133222,11111222,99999999' 
WAVCIS,ioos:station:WAVCIS:CSI16:1,2010-12-08T02:00:00Z,29.4012,-89.0355,10.86,305.0,0.192,-99999.0,'11133222,11111222,99999999' 
WAVCIS,ioos:station:WAVCIS:CSI16:1,2010-12-08T03:00:00Z,29.4012,-89.0355,10.86,304.0,0.143,-99999.0,'11133222,11111222,99999999' 
WAVCIS,ioos:station:WAVCIS:CSI16:1,2010-12-08T04:00:00Z,29.4012,-89.0355,10.86,315.0,0.127,-99999.0,'11133222,11111222,99999999' 
WAVCIS,ioos:station:WAVCIS:CSI16:1,2010-12-08T05:00:00Z,29.4012,-89.0355,10.86,320.0,0.104,-99999.0,'11133222,11111222,99999999' 
WAVCIS,ioos:station:WAVCIS:CSI16:1,2010-12-08T06:00:00Z,29.4012,-89.0355,10.86,358.0,0.103,-99999.0,'11133222,11111222,99999999' 
WAVCIS,ioos:station:WAVCIS:CSI16:1,2010-12-08T07:00:00Z,29.4012,-89.0355,10.86,29.0,0.111,-99999.0,'11133222,11111222,99999999' 
WAVCIS,ioos:station:WAVCIS:CSI16:1,2010-12-08T08:00:00Z,29.4012,-89.0355,10.36,67.0,0.157,-99999.0,'11133222,11111222,99999999' 
WAVCIS,ioos:station:WAVCIS:CSI16:1,2010-12-08T09:00:00Z,29.4012,-89.0355,10.36,78.0,0.144,-99999.0,'11133222,11111222,99999999' 
WAVCIS,ioos:station:WAVCIS:CSI16:1,2010-12-08T10:00:00Z,29.4012,-89.0355,10.36,93.0,0.261,-99999.0,'11133222,11111222,99999999' 
WAVCIS,ioos:station:WAVCIS:CSI16:1,2010-12-08T11:00:00Z,29.4012,-89.0355,10.36,135.0,0.296,-99999.0,'11133222,11111222,99999999' 
WAVCIS,ioos:station:WAVCIS:CSI16:1,2010-12-08T12:00:00Z,29.4012,-89.0355,10.36,143.0,0.21,-99999.0,'11133222,11111222,99999999' 
WAVCIS,ioos:station:WAVCIS:CSI16:1,2010-12-08T13:00:00Z,29.4012,-89.0355,9.86,157.0,0.316,-99999.0,'11133222,11111222,99999999' 
WAVCIS,ioos:station:WAVCIS:CSI16:1,2010-12-08T14:00:00Z,29.4012,-89.0355,9.86,151.0,0.351,-99999.0,'11133222,11111222,99999999' 
WAVCIS,ioos:station:WAVCIS:CSI16:1,2010-12-08T15:00:00Z,29.4012,-89.0355,10.36,155.0,0.376,-99999.0,'11133222,11111222,99999999' 